Location: Le Castellard
(44.1862°N, 6.1301°E)
Time: 18:46:01
(UTC+00:00)

Cosmos 923 Rocket - Pass Details

Date: 18 January 2020
Orbit: 757 x 786 km, 74.0° (Epoch: 15 February)

Event Time Altitude Azimuth Distance (km) Brightness Sun altitude
Rises 06:20:32 0° 211° (SSW) 3,219 7.1 -8.3°
Reaches altitude 10° 06:22:55 10° 215° (SW) 2,301 6.3 -7.9°
Maximum altitude 06:28:04 57° 294° (WNW) 908 4.1 -7.0°
Drops below altitude 10° 06:33:17 10° 13° (NNE) 2,336 6.4 -6.2°
Sets 06:35:44 0° 18° (NNE) 3,272 7.2 -5.8°
